Wind_Speed
15 16 16 15 15 15 15 15 16 17 16 16 17 17 17 18 18 18 18 18 18 18 18 19 20 22 23 24 25 26 27 29 31 32 33 34 35 37 38 40 41 43 45 46
15 15 15 14 14 14 14 14 15 15 17 16 17 17 16 16 17 17 18 18 18 18 18 19 20 21 22 24 25 26 27 29 31 33 34 35 36 37 39 40 42 45 47 48
14 15 15 14 14 14 15 14 14 13 15 17 18 18 16 16 17 17 18 18 19 19 19 20 20 22 23 24 25 27 28 30 32 34 35 36 37 38 40 42 45 47 48 50
14 15 14 15 15 15 15 15 14 13 14 16 18 20 18 17 17 18 18 18 19 19 20 21 22 23 25 26 27 29 30 31 33 35 36 38 39 40 42 45 46 48 50 51
15 15 15 15 15 15 15 16 15 15 15 16 18 20 21 19 18 18 18 19 20 21 22 23 25 26 27 28 29 30 31 33 34 36 38 40 41 43 45 47 48 50 52 54
17 16 16 16 16 16 16 17 17 17 16 16 17 18 21 21 21 21 20 20 21 22 23 25 26 28 29 30 31 31 33 34 35 37 39 41 42 44 46 47 49 51 53 55
18 17 17 17 17 17 18 18 19 18 17 17 18 19 21 23 23 23 23 23 23 23 24 25 27 28 29 30 31 32 33 34 35 36 38 40 41 43 45 47 49 51 53 55
19 17 17 18 18 19 19 20 20 21 20 18 19 20 22 24 25 25 25 24 24 24 24 25 26 28 29 30 31 32 33 34 35 37 38 40 41 43 45 47 49 51 52 54
19 18 18 19 20 21 21 21 22 23 23 22 20 20 23 25 25 25 25 24 24 24 25 26 27 28 29 31 32 34 35 36 38 39 40 42 43 45 47 49 50 52 54 55
21 20 20 21 22 23 23 23 24 25 26 25 22 20 23 25 25 25 25 24 25 26 27 29 30 31 32 33 35 36 37 38 40 41 43 45 47 49 50 52 54 55 57 59
23 22 20 21 22 24 24 25 25 26 27 28 26 20 23 24 25 25 26 26 28 29 30 31 32 33 34 36 38 39 41 43 44 46 48 50 52 53 55 56 58 59 60 61
24 23 22 23 24 26 26 25 26 27 28 27 26 20 22 24 26 27 28 29 30 32 33 33 35 36 38 40 42 44 46 48 50 52 54 55 57 59 60 61 62 63 64 64
25 25 24 24 26 26 26 26 27 28 28 27 26 22 24 27 28 29 30 31 33 34 36 37 39 41 44 46 48 49 51 53 55 57 59 61 62 63 64 65 66 66 67 67
28 27 26 26 27 28 27 26 27 29 29 29 26 25 25 29 30 31 32 34 35 37 40 42 44 46 48 50 53 55 57 59 61 63 64 66 67 68 69 69 70 70 70 69
30 29 28 28 29 29 27 26 27 30 31 31 28 29 29 30 31 32 34 36 39 41 44 46 48 51 53 55 58 60 62 64 66 68 70 71 72 73 73 73 73 73 72 72
32 32 31 29 29 30 28 27 29 30 31 33 32 32 32 32 33 35 37 40 43 45 48 51 53 56 58 60 63 65 67 69 71 73 75 76 77 77 76 76 75 74 73 72
33 33 33 31 30 31 30 29 30 31 32 33 33 33 34 35 36 38 41 44 46 49 52 55 58 61 63 66 69 71 73 75 77 78 79 80 79 78 77 76 74 73 72 71
33 33 35 34 32 32 30 30 31 32 32 33 34 35 36 38 40 42 45 48 51 54 57 60 63 66 68 71 73 76 78 79 81 81 81 80 78 77 75 73 72 70 69 68
33 34 36 36 34 32 30 32 33 34 34 35 36 38 39 41 44 46 50 53 56 59 62 65 68 70 73 75 78 80 81 82 82 81 79 77 75 73 71 69 68 66 65 63
34 35 36 36 37 35 33 34 34 36 37 37 38 40 43 45 48 50 54 57 60 63 66 69 72 75 77 79 81 82 82 82 81 78 76 73 71 69 67 65 63 62 61 60
35 36 36 37 38 37 36 37 37 38 39 40 42 44 47 50 53 56 59 62 65 68 71 73 76 78 80 82 82 82 81 79 77 74 71 69 66 64 63 61 60 59 57 56
35 35 36 36 38 39 39 39 39 40 42 44 46 49 52 55 57 60 63 66 69 72 74 77 79 80 80 81 81 79 77 75 73 70 66 64 61 60 59 58 56 55 54 53
34 35 36 37 38 40 41 41 42 44 46 48 51 53 56 59 61 64 66 69 72 75 77 79 80 80 79 78 77 75 73 71 68 65 62 59 57 56 56 54 53 51 51 50
34 35 36 38 39 41 42 43 45 48 50 52 55 57 60 62 65 67 70 73 75 77 78 79 79 78 76 74 72 71 69 67 64 61 57 55 54 52 51 50 49 48 48 47
33 36 38 39 40 43 44 46 48 51 53 55 58 61 63 65 68 70 72 74 76 77 77 77 76 74 72 70 68 66 64 62 59 56 54 51 50 49 48 47 46 46 46 46
34 38 40 41 42 44 46 48 51 53 55 57 60 62 65 67 69 71 73 74 75 76 76 75 73 70 68 66 64 62 60 58 56 53 50 49 47 46 45 44 43 43 44 44
Wind_Direction
271 272 273 275 276 278 280 280 279 282 286 287 289 291 293 295 296 297 298 299 298 294 291 288 286 284 283 281 279 278 277 276 276 275 274 273 273 273 274 273 274 274 274 275
269 271 274 276 276 277 277 277 280 286 291 293 293 295 297 297 299 300 301 300 300 298 295 293 290 287 285 284 282 279 278 277 277 276 276 276 275 275 275 275 275 275 276 277
265 268 272 275 276 278 279 280 283 287 292 294 295 296 298 299 299 299 300 300 300 299 298 296 294 291 289 287 285 283 281 279 278 278 277 277 277 277 277 276 276 278 279 280
262 265 267 271 274 277 280 284 287 289 289 291 296 298 299 300 298 298 299 300 300 299 299 298 296 294 291 289 287 286 284 282 281 280 280 279 279 279 278 278 279 279 280 280
261 264 268 271 274 277 281 285 288 290 291 293 296 298 300 301 298 298 300 301 301 300 299 298 297 295 293 291 289 288 287 286 285 284 284 283 283 282 282 282 281 281 281 281
261 264 268 272 275 278 282 285 288 290 293 295 295 296 296 298 299 301 302 303 301 300 299 298 297 296 295 294 293 291 290 289 289 288 287 287 286 285 285 284 284 283 282 282
261 264 267 272 275 278 282 286 289 292 294 296 296 295 295 298 301 302 303 302 301 301 300 299 298 297 297 297 296 295 295 294 293 292 291 290 289 288 287 286 285 285 284 283
262 265 268 271 274 278 281 285 289 293 296 296 297 298 297 298 299 300 301 302 303 303 301 299 298 299 299 299 298 298 297 296 295 295 294 293 292 291 290 289 288 287 286 285
261 262 266 270 274 278 281 284 289 292 294 295 295 297 294 295 297 299 301 304 305 304 303 302 303 303 302 301 300 300 300 299 298 298 297 296 295 294 293 291 290 289 287 286
262 263 264 269 274 278 282 286 290 292 294 296 297 299 295 296 298 301 304 306 306 305 304 304 305 304 303 303 302 302 301 300 299 298 298 297 296 295 294 293 291 290 289 287
262 264 266 269 273 278 282 286 289 290 292 294 297 302 297 297 299 301 304 305 304 304 304 304 305 304 303 303 302 302 302 301 300 300 299 298 297 295 294 293 292 291 290 288
264 266 267 271 274 277 281 285 287 288 290 292 295 301 296 295 297 299 302 302 302 303 304 304 303 303 302 302 302 302 302 302 301 300 299 298 297 296 295 294 293 292 290 289
265 267 270 271 274 277 281 283 284 284 285 288 292 298 295 294 296 299 300 301 301 302 302 302 302 302 302 302 302 302 302 301 301 300 299 298 297 296 295 294 293 292 291 289
265 267 270 273 276 278 280 281 282 283 286 288 291 293 291 293 297 299 299 300 300 300 301 301 301 302 302 303 302 302 302 301 300 299 299 298 297 296 295 294 293 292 291 290
266 268 270 273 276 278 279 279 281 283 286 289 292 293 294 294 297 297 298 298 299 299 300 301 302 302 302 302 302 301 301 300 300 299 299 298 297 297 296 295 294 293 292 290
267 269 270 272 275 276 276 278 279 281 283 287 291 294 295 296 297 297 297 298 299 300 301 302 302 302 302 302 302 302 301 301 301 300 300 299 299 298 297 296 294 293 291 289
266 270 271 272 272 273 276 277 278 280 282 286 290 293 295 296 297 297 298 300 301 301 302 302 302 303 303 303 303 303 303 303 302 302 301 301 300 299 297 296 294 292 290 289
265 268 270 272 271 272 276 277 278 280 283 287 290 294 295 296 297 299 300 301 302 302 303 304 304 304 304 304 304 304 304 304 303 303 303 302 301 299 298 296 294 293 291 290
265 268 270 272 272 273 276 278 280 283 285 289 292 294 295 296 298 300 301 302 303 304 304 304 305 305 305 305 305 305 305 305 305 305 304 303 301 300 298 296 295 294 292 291
266 268 271 273 275 277 278 278 281 284 288 291 293 294 296 298 299 300 301 302 303 303 304 305 305 306 306 306 306 306 306 306 306 306 305 304 302 301 299 298 297 295 294 293
265 267 269 273 276 278 280 282 285 288 291 293 295 296 297 299 300 301 302 303 304 305 306 306 307 307 307 307 307 307 308 307 307 306 306 305 303 302 300 299 298 297 295 294
264 266 268 271 275 279 282 285 288 291 292 294 295 297 298 300 302 303 304 305 305 306 306 307 307 308 308 308 308 308 308 308 307 307 306 305 303 302 301 300 299 298 297 297
263 267 269 271 276 280 283 287 290 292 294 295 297 299 300 302 303 304 304 305 305 306 307 307 308 308 309 309 309 309 309 308 308 308 307 306 304 304 303 302 301 300 300 299
264 267 270 273 276 280 284 288 291 293 295 297 299 300 301 302 303 304 304 305 306 307 307 307 308 309 310 310 310 309 309 309 309 308 308 306 306 305 304 303 303 302 301 300
268 269 271 274 278 282 286 289 292 294 296 298 299 300 301 302 303 303 304 306 306 307 307 308 309 310 310 310 310 310 309 309 310 309 308 307 307 306 306 305 304 304 303 303
269 271 273 277 281 285 288 290 292 294 295 297 298 299 300 301 302 304 305 306 307 307 308 309 310 310 311 311 311 311 310 311 310 310 310 309 308 307 307 307 306 305 305 305
Height
5835 5835 5834 5834 5833 5832 5832 5831 5830 5828 5827 5826 5824 5824 5823 5820 5818 5816 5814 5813 5811 5810 5808 5806 5804 5802 5800 5799 5797 5796 5794 5793 5791 5790 5790 5789 5788 5786 5785 5783 5781 5778 5776 5773
5831 5831 5830 5829 5829 5828 5828 5827 5826 5824 5822 5821 5820 5819 5818 5816 5813 5812 5810 5808 5806 5804 5802 5800 5798 5796 5794 5793 5791 5789 5788 5786 5784 5782 5781 5780 5778 5777 5775 5773 5771 5768 5765 5763
5827 5827 5826 5825 5824 5824 5823 5823 5821 5820 5818 5816 5815 5814 5813 5811 5809 5807 5806 5804 5801 5799 5797 5795 5792 5790 5788 5786 5785 5783 5781 5779 5777 5774 5773 5771 5769 5767 5765 5762 5760 5757 5755 5752
5822 5822 5822 5821 5821 5820 5819 5818 5817 5816 5815 5813 5812 5809 5808 5807 5805 5803 5801 5799 5796 5793 5791 5789 5786 5784 5782 5779 5777 5775 5773 5771 5768 5766 5764 5762 5759 5757 5755 5752 5749 5746 5743 5740
5818 5818 5818 5817 5817 5816 5814 5813 5813 5812 5810 5809 5807 5804 5803 5801 5799 5798 5796 5793 5791 5788 5785 5782 5779 5777 5774 5772 5769 5767 5764 5762 5760 5757 5755 5752 5749 5747 5744 5741 5738 5734 5731 5727
5814 5814 5813 5812 5812 5811 5810 5809 5808 5807 5806 5805 5802 5800 5798 5795 5793 5791 5789 5787 5784 5781 5778 5775 5772 5769 5767 5764 5761 5758 5756 5753 5750 5748 5745 5742 5739 5735 5732 5729 5725 5721 5718 5714
5810 5810 5809 5808 5807 5807 5806 5805 5803 5802 5801 5800 5797 5795 5793 5789 5787 5785 5783 5780 5778 5775 5772 5769 5765 5762 5759 5756 5753 5750 5747 5744 5741 5737 5734 5731 5727 5724 5720 5716 5712 5708 5704 5700
5804 5805 5804 5803 5802 5801 5800 5800 5799 5797 5795 5794 5792 5789 5787 5783 5780 5778 5776 5774 5771 5768 5765 5762 5758 5755 5751 5748 5745 5742 5738 5735 5731 5727 5724 5720 5716 5712 5708 5703 5699 5694 5690 5685
5799 5800 5799 5798 5797 5796 5795 5794 5792 5790 5788 5787 5786 5784 5781 5777 5774 5772 5769 5767 5764 5761 5757 5754 5751 5747 5744 5740 5737 5733 5729 5725 5722 5718 5713 5709 5704 5700 5695 5690 5685 5680 5675 5670
5794 5795 5794 5793 5791 5790 5789 5787 5786 5783 5781 5779 5780 5778 5774 5770 5767 5765 5762 5759 5756 5753 5750 5747 5743 5739 5735 5731 5728 5724 5720 5716 5712 5707 5702 5697 5692 5687 5682 5676 5671 5665 5660 5654
5788 5788 5789 5787 5786 5784 5783 5782 5779 5776 5775 5772 5771 5774 5767 5764 5760 5758 5755 5752 5749 5746 5742 5739 5735 5731 5727 5722 5718 5714 5710 5705 5700 5695 5690 5685 5679 5673 5667 5661 5655 5649 5643 5637
5781 5781 5782 5781 5779 5777 5776 5775 5772 5771 5768 5765 5763 5768 5761 5757 5754 5751 5748 5745 5741 5738 5734 5730 5726 5722 5717 5713 5708 5703 5698 5693 5688 5682 5676 5670 5664 5658 5651 5645 5638 5631 5625 5618
5774 5775 5775 5775 5775 5772 5770 5768 5765 5763 5761 5759 5757 5760 5754 5750 5747 5744 5741 5737 5733 5729 5725 5721 5716 5712 5707 5702 5697 5691 5686 5680 5674 5668 5661 5655 5648 5641 5634 5627 5620 5613 5606 5599
5767 5767 5768 5768 5765 5763 5762 5761 5758 5755 5753 5751 5751 5750 5748 5743 5739 5736 5733 5729 5725 5720 5716 5711 5706 5701 5695 5690 5684 5678 5672 5665 5659 5652 5645 5637 5630 5622 5615 5607 5600 5592 5585 5578
5759 5759 5759 5759 5757 5755 5754 5754 5751 5747 5745 5743 5743 5741 5739 5735 5732 5728 5724 5720 5715 5711 5705 5700 5695 5689 5683 5677 5671 5664 5657 5650 5642 5635 5627 5619 5611 5603 5594 5586 5579 5571 5563 5556
5750 5751 5751 5751 5749 5746 5746 5746 5743 5740 5738 5735 5734 5732 5729 5727 5723 5719 5715 5710 5705 5700 5694 5688 5682 5676 5670 5663 5656 5648 5641 5633 5624 5616 5607 5598 5590 5581 5572 5564 5556 5548 5540 5533
5743 5742 5741 5742 5741 5738 5739 5737 5735 5732 5730 5728 5726 5724 5720 5717 5713 5708 5704 5699 5693 5688 5682 5675 5668 5661 5654 5647 5639 5631 5622 5614 5604 5595 5586 5576 5567 5559 5550 5541 5533 5525 5517 5510
5735 5734 5731 5731 5732 5731 5732 5728 5726 5723 5722 5720 5717 5714 5711 5707 5702 5697 5692 5687 5681 5675 5668 5661 5653 5646 5638 5630 5621 5612 5603 5593 5583 5573 5563 5553 5544 5535 5527 5518 5510 5502 5495 5488
5726 5724 5722 5721 5720 5721 5722 5719 5716 5714 5713 5711 5708 5704 5700 5695 5691 5686 5680 5674 5667 5660 5653 5645 5637 5629 5620 5611 5602 5592 5582 5572 5561 5551 5541 5531 5521 5513 5505 5497 5489 5481 5474 5468
5716 5715 5714 5712 5710 5711 5713 5710 5707 5706 5703 5701 5697 5693 5688 5683 5679 5675 5668 5661 5654 5646 5638 5629 5620 5611 5601 5591 5581 5571 5561 5551 5540 5530 5520 5510 5501 5492 5484 5476 5469 5462 5455 5449
5707 5705 5704 5702 5699 5700 5701 5699 5697 5696 5694 5689 5685 5680 5676 5671 5665 5659 5652 5645 5637 5629 5620 5611 5602 5592 5581 5571 5561 5551 5540 5530 5520 5510 5501 5491 5482 5473 5465 5458 5451 5443 5437 5431
5697 5695 5694 5692 5690 5692 5689 5688 5686 5684 5680 5676 5672 5667 5662 5657 5650 5643 5636 5628 5620 5612 5603 5594 5584 5574 5562 5550 5540 5531 5521 5511 5501 5492 5483 5474 5465 5456 5447 5440 5434 5427 5420 5415
5687 5687 5685 5684 5684 5680 5678 5676 5673 5670 5667 5662 5658 5653 5647 5641 5635 5628 5620 5612 5604 5595 5585 5575 5565 5556 5544 5532 5520 5510 5502 5492 5483 5475 5466 5457 5449 5441 5432 5425 5418 5412 5406 5400
5677 5676 5675 5673 5672 5669 5667 5664 5661 5658 5653 5648 5643 5638 5632 5626 5619 5612 5604 5595 5586 5577 5567 5557 5547 5537 5528 5516 5504 5492 5483 5474 5466 5458 5450 5442 5434 5427 5419 5411 5404 5398 5392 5386
5667 5665 5663 5662 5661 5658 5656 5653 5649 5645 5640 5635 5629 5623 5617 5611 5604 5596 5588 5579 5569 5559 5549 5539 5528 5519 5509 5499 5489 5477 5467 5459 5451 5444 5436 5428 5420 5413 5406 5400 5392 5386 5380 5372
5655 5653 5652 5652 5650 5648 5645 5641 5637 5632 5627 5622 5616 5610 5603 5595 5588 5580 5571 5561 5551 5541 5531 5522 5512 5502 5492 5483 5473 5463 5454 5445 5437 5430 5422 5415 5408 5401 5394 5388 5382 5375 5368 5362